User: anonymous   Login
Location: Unspecified
(0.0000°N, 0.0000°E)
Time: 22:59:21
(UTC+00:00)
Language:

STARLINK-6185 - Orbit

View from above orbital plane
View from above orbital plane
View from above satellite
View from above satellite

Ground track
Ground track

The orbit is defined by the following mean orbital elements,

1 56901U          26145.61701719 +.00000000 +00000-0 -25963-4 0 00004
2 56901  42.9906   7.4761 0002975 141.2287 218.8778 15.27561422    02
Epoch (UTC): 25 May 2026 14:48:30
Eccentricity: 0.0002975
inclination: 42.9906°
perigee height: 481 km
apogee height: 485 km
right ascension of ascending node: 7.4761°
argument of perigee: 141.2287°
revolutions per day: 15.27561422
mean anomaly at epoch: 218.8778°

The dashed part of the orbit path shows where the satellite is in the earth's shadow,  

DLR